This is the latest recevied weather packets stored in our database for station/object SR9WXP. If no packets are shown the sender has not sent any weather packets the latest 1 day(s).
| Time | Temp. | Humidity | Pressure | Rain* | Wind** | Luminosity | Snow |
|---|---|---|---|---|---|---|---|
| 1778025160 | 7.78° C | 63% | 848.2 hPa | - | 5.36 m/s, 172° | - | - |
| 1778025040 | 7.78° C | 63% | 848.2 hPa | - | 5.81 m/s, 171° | - | - |
| 1778024916 | 7.78° C | 63% | 848.3 hPa | - | 6.71 m/s, 178° | - | - |
| 1778024678 | 7.78° C | 63% | 848.3 hPa | - | 6.26 m/s, 174° | - | - |
| 1778024616 | 7.78° C | 63% | 848.3 hPa | - | 5.81 m/s, 171° | - | - |
| 1778024558 | 7.78° C | 63% | 848.3 hPa | - | 5.81 m/s, 178° | - | - |
| 1778024438 | 8.33° C | 63% | 848.2 hPa | - | 5.81 m/s, 184° | - | - |
| 1778024316 | 8.33° C | 62% | 848.1 hPa | - | 6.26 m/s, 179° | - | - |
| 1778024074 | 8.33° C | 63% | 848.1 hPa | - | 6.26 m/s, 175° | - | - |
| 1778024013 | 8.33° C | 63% | 848.1 hPa | - | 6.26 m/s, 173° | - | - |
| 1778023954 | 8.33° C | 63% | 848.1 hPa | - | 6.71 m/s, 173° | - | - |
| 1778023834 | 8.33° C | 62% | 848.1 hPa | - | 7.15 m/s, 178° | - | - |
| 1778023710 | 7.78° C | 62% | 848.1 hPa | - | 7.15 m/s, 186° | - | - |
| 1778023472 | 7.78° C | 63% | 848.2 hPa | - | 6.71 m/s, 178° | - | - |
| 1778023411 | 7.78° C | 63% | 848.2 hPa | - | 6.71 m/s, 182° | - | - |
| 1778023410 | 7.78° C | 62% | 848.2 hPa | - | 6.71 m/s, 182° | - | - |
| 1778023351 | 7.78° C | 62% | 848.2 hPa | - | 6.26 m/s, 183° | - | - |
| 1778023230 | 7.78° C | 63% | 848.3 hPa | - | 6.71 m/s, 172° | - | - |
| 1778023107 | 7.78° C | 63% | 848.2 hPa | - | 6.26 m/s, 174° | - | - |
| 1778022868 | 7.78° C | 63% | 848.3 hPa | - | 7.15 m/s, 174° | - | - |
| 1778022807 | 7.78° C | 63% | 848.4 hPa | - | 6.71 m/s, 176° | - | - |
| 1778022748 | 7.78° C | 63% | 848.4 hPa | - | 6.71 m/s, 183° | - | - |
| 1778022628 | 7.78° C | 62% | 848.5 hPa | - | 5.81 m/s, 172° | - | - |
| 1778022503 | 7.78° C | 62% | 848.5 hPa | - | 6.26 m/s, 168° | - | - |
| 1778022385 | 7.78° C | 62% | 848.5 hPa | - | 5.81 m/s, 180° | - | - |
* Rain since midnight (hover to see other rain measurements)
** Current wind speed in m/s (hover to see current wind gust speed)